This demonstration page uses our WeatherBlox Daily Observations layout. Learn more.

Left ArrowRight Arrow

39.51506, -84.39828

Hourly Observations for September 26, 2022

Temp ( °F °C ) Dew Point ( °F °C ) Humidity (%) Winds ( mph kmh ) Pressure ( in mb ) Visibility ( mi km ) Precip ( " mm )
12:15 am 00:15 Clear 53 11.8 52 11 95 95 WSW 7 11 29.82 1010 10 16 0.00 0.00
12:35 am 00:35 Clear 52 11.3 52 10.9 97 97 SW 7 11 29.83 1010 10 16 0.00 0.00
12:55 am 00:55 Clear 53 11.9 53 11.4 97 97 SSW 10 17 29.82 1010 10 16 0.00 0.00
1:15 am 01:15 Clear 53 11.8 52 11.2 96 96 WSW 6 9 29.82 1010 10 16 0.00 0.00
1:35 am 01:35 Clear 53 11.8 53 11.4 97 97 SW 6 9 29.82 1010 10 16 0.00 0.00
1:55 am 01:55 Clear 52 11.1 52 10.9 99 99 SW 6 9 29.82 1010 10 16 0.00 0.00
2:15 am 02:15 Mostly Cloudy 53 11.6 52 11.2 97 97 W 3 6 29.82 1010 10 16 0.00 0.00
2:35 am 02:35 Cloudy 56 13.1 53 11.8 92 92 SW 9 15 29.82 1010 10 16 0.00 0.00
2:55 am 02:55 Cloudy 56 13.2 53 11.8 91 91 W 9 15 29.81 1010 10 16 0.00 0.00
3:15 am 03:15 Cloudy 57 14.1 52 11.2 83 83 WSW 8 13 29.81 1009 10 16 0.00 0.00
3:35 am 03:35 Cloudy 57 14 52 11.3 84 84 W 6 9 29.81 1009 10 16 0.00 0.00
3:55 am 03:55 Cloudy 57 13.9 52 11 83 83 WSW 8 13 29.81 1009 10 16 0.00 0.00
4:15 am 04:15 Cloudy 56 13.5 52 10.9 84 84 SW 7 11 29.79 1009 10 16 0.00 0.00
4:35 am 04:35 Mostly Cloudy 54 12.4 52 11 91 91 SW 7 11 29.79 1009 10 16 0.00 0.00
4:55 am 04:55 Partly Cloudy 53 11.4 52 11 97 97 WSW 3 6 29.80 1009 10 16 0.00 0.00
5:15 am 05:15 Mostly Cloudy 52 11.3 52 11.2 99 99 SSW 6 9 29.80 1009 10 16 0.00 0.00
5:35 am 05:35 Cloudy 52 11.1 52 11 99 99 WSW 5 7 29.80 1009 10 16 0.00 0.00
5:55 am 05:55 Partly Cloudy 51 10.8 51 10.8 100 100 WSW 5 7 29.81 1009 10 16 0.00 0.00
6:10 am 06:10 Partly Cloudy 51 10.3 52 11 N/A WSW 5 7 29.81 1009 10 16 0.00 0.00
6:35 am 06:35 Partly Cloudy 51 10.4 49 9.7 95 95 WSW 6 9 29.82 1010 10 16 0.00 0.00
6:55 am 06:55 Cloudy 53 11.5 51 10.4 93 93 WSW 8 13 29.83 1010 10 16 0.00 0.00
7:15 am 07:15 Cloudy 53 11.8 50 10 89 89 WSW 8 13 29.82 1010 10 16 0.00 0.00
7:35 am 07:35 Mostly Cloudy 53 11.5 50 9.8 89 89 W 7 11 29.83 1010 10 16 0.00 0.00
7:55 am 07:55 Mostly Cloudy 53 11.6 49 9.5 87 87 W 9 15 29.85 1011 10 16 0.00 0.00
8:15 am 08:15 Mostly Cloudy 54 12.3 49 9.6 84 84 W 9 15 29.85 1011 10 16 0.00 0.00
8:35 am 08:35 Cloudy 55 12.8 49 9.6 81 81 W 8 13 29.86 1011 10 16 0.00 0.00
8:55 am 08:55 Cloudy 55 13 49 9.4 79 79 W 9 15 29.86 1011 10 16 0.00 0.00
9:15 am 09:15 Cloudy 56 13.3 48 9 75 75 W 9 15 29.86 1011 10 16 0.00 0.00
9:35 am 09:35 Cloudy 56 13.5 48 8.9 74 74 WSW 9 15 29.86 1011 10 16 0.00 0.00
9:55 am 09:55 Mostly Cloudy 58 14.3 47 8.3 67 67 W 7 11 29.87 1011 10 16 0.00 0.00
10:15 am 10:15 Partly Cloudy 60 15.6 47 8.1 61 61 W 12 19 29.87 1011 10 16 0.00 0.00
10:35 am 10:35 Sunny 62 16.5 45 7.3 54 54 WSW 14 22 29.86 1011 10 16 0.00 0.00
10:55 am 10:55 Sunny 63 17.2 46 7.8 54 54 WSW 13 20 29.86 1011 10 16 0.00 0.00
11:15 am 11:15 Partly Cloudy 64 18 44 6.6 47 47 SW 16 26 29.86 1011 10 16 0.00 0.00
11:35 am 11:35 Partly Cloudy 65 18.1 43 6.1 45 45 W 16 26 29.87 1011 10 16 0.00 0.00
11:55 am 11:55 Partly Cloudy 65 18.6 42 5.5 42 42 W 16 26 29.86 1011 10 16 0.00 0.00
12:15 pm 12:15 Partly Cloudy 66 18.8 42 5.4 41 41 W 16 26 29.86 1011 10 16 0.00 0.00
12:35 pm 12:35 Mostly Cloudy 66 19.1 41 5 39 39 W 18 30 29.87 1011 10 16 0.00 0.00
12:55 pm 12:55 Mostly Cloudy 64 17.6 39 3.8 40 40 W 13 20 29.87 1011 10 16 0.00 0.00
1:15 pm 13:15 Mostly Cloudy 65 18.1 38 3.1 37 37 W 20 31 29.87 1011 10 16 0.00 0.00
1:35 pm 13:35 Mostly Cloudy 67 19.7 38 3.1 33 33 W 20 31 29.86 1011 10 16 0.00 0.00
1:55 pm 13:55 Mostly Cloudy 65 18.5 36 2.2 34 34 W 17 28 29.87 1011 10 16 0.00 0.00
2:15 pm 14:15 Mostly Cloudy 64 17.7 36 2.1 35 35 WNW 13 20 29.87 1011 10 16 0.00 0.00
2:35 pm 14:35 Partly Cloudy 67 19.5 37 2.9 33 33 W 9 15 29.86 1011 10 16 0.00 0.00
2:55 pm 14:55 Partly Cloudy 67 19.6 35 1.4 30 30 W 16 26 29.86 1011 10 16 0.00 0.00
3:15 pm 15:15 Partly Cloudy 68 20.1 34 1.3 29 29 WSW 21 33 29.85 1011 10 16 0.00 0.00
3:35 pm 15:35 Partly Cloudy 68 19.8 35 1.9 30 30 W 21 33 29.86 1011 10 16 0.00 0.00
3:55 pm 15:55 Partly Cloudy 69 20.4 37 2.5 31 31 W 20 31 29.86 1011 10 16 0.00 0.00
4:15 pm 16:15 Cloudy 67 19.6 36 2.1 31 31 W 12 19 29.86 1011 10 16 0.00 0.00
4:35 pm 16:35 Cloudy 66 18.8 36 2.4 33 33 W 18 30 29.87 1011 10 16 0.00 0.00
4:55 pm 16:55 Mostly Cloudy 67 19.5 37 2.8 33 33 W 18 30 29.88 1012 10 16 0.00 0.00
5:15 pm 17:15 Mostly Cloudy 66 18.9 38 3.6 36 36 W 15 24 29.88 1012 10 16 0.00 0.00
5:35 pm 17:35 Cloudy 65 18.3 39 3.8 38 38 W 10 17 29.89 1012 10 16 0.00 0.00
5:55 pm 17:55 Cloudy 65 18.5 38 3.4 37 37 W 15 24 29.89 1012 10 16 0.00 0.00
6:15 pm 18:15 Mostly Cloudy 64 17.8 38 3.4 38 38 WSW 10 17 29.89 1012 10 16 0.00 0.00
6:35 pm 18:35 Mostly Cloudy 65 18.4 39 3.7 38 38 W 10 17 29.89 1012 10 16 0.00 0.00
6:55 pm 18:55 Mostly Cloudy 64 17.5 38 3.5 39 39 W 10 17 29.89 1012 10 16 0.00 0.00
7:15 pm 19:15 Mostly Cloudy 63 17 39 3.8 41 41 W 9 15 29.90 1013 10 16 0.00 0.00
7:35 pm 19:35 Mostly Cloudy 59 15.1 39 4.1 48 48 WSW 6 9 29.91 1013 10 16 0.00 0.00
7:55 pm 19:55 Partly Cloudy 56 13.5 44 6.7 63 63 WSW 6 9 29.91 1013 10 16 0.00 0.00
8:15 pm 20:15 Clear 54 12.2 45 7.4 72 72 WSW 6 9 29.92 1013 10 16 0.00 0.00
8:35 pm 20:35 Mostly Cloudy 53 11.8 47 8.3 79 79 WSW 7 11 29.93 1014 10 16 0.00 0.00
8:55 pm 20:55 Partly Cloudy 52 11.3 46 7.9 80 80 WSW 7 11 29.95 1014 10 16 0.00 0.00
9:15 pm 21:15 Mostly Cloudy 51 10.7 47 8.2 85 85 W 6 9 29.96 1014 10 16 0.00 0.00
9:35 pm 21:35 Mostly Cloudy 51 10.6 47 8.3 86 86 W 6 9 29.96 1014 10 16 0.00 0.00
9:55 pm 21:55 Partly Cloudy 50 10.2 47 8.5 89 89 WSW 6 9 29.96 1015 10 16 0.00 0.00
10:15 pm 22:15 Clear 49 9.4 47 8.2 92 92 W 5 7 29.96 1015 10 16 0.00 0.00
10:35 pm 22:35 Clear 48 9.1 46 7.9 92 92 W 6 9 29.97 1015 10 16 0.00 0.00
10:55 pm 22:55 Clear 49 9.5 45 7 84 84 W 6 9 29.97 1015 10 16 0.00 0.00
11:15 pm 23:15 Clear 49 9.4 44 6.6 83 83 W 6 9 29.97 1015 10 16 0.00 0.00
11:35 pm 23:35 Clear 49 9.2 43 6.3 82 82 W 6 9 29.98 1015 10 16 0.00 0.00
11:55 pm 23:55 Clear 48 9 44 6.8 86 86 W 6 9 29.98 1015 10 16 0.00 0.00

Powered by AerisWeather